Weather History for Alva, OK

Change the Weather History Date:

Sunday, February 10, 2013

  Actual Average Record
Temperature  
Mean Temperature 42 °F -  
Max Temperature 53 °F 55 °F 78 °F (1976)
Min Temperature 30 °F 25 °F 2 °F (1979)
Degree Days  
Heating Degree Days 24    
Moisture  
Dew Point 27 °F    
Average Humidity 55    
Maximum Humidity 100    
Minimum Humidity 28    
Precipitation  
Precipitation 0.00 in - - ()
Sea Level Pressure  
Sea Level Pressure 29.77 in    
Wind  
Wind Speed 15 mph (WNW)    
Max Wind Speed 31 mph    
Max Gust Speed 39 mph    
Visibility 10 miles    
Events      
Averages and records for this station are not official NWS values.
T = Trace of Precipitation, MM = Missing Value Source: NWS Daily Summary

Daily Weather History Graph

Daily Weather History Graph

Search for Another Location

Airport:

Trip Planner

Search our weather history database for the weather conditions in past years. The results will help you decide how hot, cold, wet, or windy it might be!

Date:

Astronomy

Feb. 10, 2013 Rise Set
Actual Time 7:28 AM CST 6:10 PM CST
Civil Twilight 7:01 AM CST 6:36 PM CST
Nautical Twilight 6:30 AM CST 7:07 PM CST
Astronomical Twilight 6:00 AM CST 7:37 PM CST
Moon 7:20 AM CST (2/10) 6:59 PM CST (2/10)
Length of Visible Light 11h 35m
Length of Day
10h 42m
New Moon, 0% of the Moon is Illuminated
Feb 10
New Moon
Feb 17
First Quarter
Feb 25
Full
Mar 4
Last Quarter
Mar 11
New

Hourly Weather History & Observations

Time (CST) Temp. Windchill Dew Point Humidity Pressure Visibility Wind Dir Wind Speed Gust Speed Precip Events Conditions
12:10 AM 46.4 °F 40.7 °F 46.4 °F 100% 29.62 in 5.0 mi South 12.7 mph - N/A   Overcast
12:30 AM 46.4 °F 40.7 °F 46.4 °F 100% 29.60 in 5.0 mi South 12.7 mph - N/A   Overcast
12:50 AM 46.4 °F 41.1 °F 46.4 °F 100% 29.60 in 7.0 mi South 11.5 mph - N/A   Overcast
1:10 AM 46.4 °F 40.7 °F 46.4 °F 100% 29.59 in 6.0 mi South 12.7 mph - N/A   Overcast
1:30 AM 46.4 °F 41.1 °F 46.4 °F 100% 29.59 in 9.0 mi SSW 11.5 mph - N/A   Overcast
1:50 AM 46.4 °F 41.1 °F 46.4 °F 100% 29.59 in 10.0 mi SSW 11.5 mph - N/A   Overcast
2:10 AM 46.4 °F 41.1 °F 44.6 °F 93% 29.58 in 10.0 mi SSW 11.5 mph - N/A   Mostly Cloudy
2:30 AM 42.8 °F 36.6 °F 37.4 °F 81% 29.58 in 10.0 mi SSW 11.5 mph - N/A   Partly Cloudy
2:50 AM 41.0 °F 35.2 °F 39.2 °F 93% 29.57 in 10.0 mi SSW 9.2 mph - N/A   Clear
3:10 AM 41.0 °F 33.1 °F 37.4 °F 87% 29.56 in 10.0 mi SW 15.0 mph - N/A   Clear
3:30 AM 41.0 °F 33.1 °F 32.0 °F 70% 29.55 in 10.0 mi WSW 15.0 mph - N/A   Clear
3:50 AM 39.2 °F 30.2 °F 28.4 °F 65% 29.54 in 10.0 mi WSW 17.3 mph 23.0 mph N/A   Clear
4:10 AM 39.2 °F 30.2 °F 26.6 °F 61% 29.54 in 10.0 mi SW 17.3 mph - N/A   Clear
4:30 AM 37.4 °F 27.8 °F 26.6 °F 65% 29.54 in 10.0 mi SW 17.3 mph - N/A   Clear
4:50 AM 37.4 °F 27.5 °F 26.6 °F 65% 29.55 in 10.0 mi SW 18.4 mph - N/A   Clear
5:10 AM 37.4 °F 27.8 °F 26.6 °F 65% 29.56 in 10.0 mi WSW 17.3 mph - N/A   Clear
5:30 AM 37.4 °F 27.8 °F 24.8 °F 60% 29.57 in 10.0 mi SW 17.3 mph - N/A   Clear
5:50 AM 35.6 °F 25.5 °F 24.8 °F 65% 29.58 in 10.0 mi WSW 17.3 mph 23.0 mph N/A   Partly Cloudy
6:10 AM 37.4 °F 27.8 °F 24.8 °F 60% 29.59 in 10.0 mi WSW 17.3 mph - N/A   Partly Cloudy
6:30 AM 35.6 °F 26.6 °F 24.8 °F 65% 29.61 in 10.0 mi WSW 13.8 mph - N/A   Clear
6:50 AM 37.4 °F 28.9 °F 26.6 °F 65% 29.61 in 10.0 mi WSW 13.8 mph - N/A   Clear
7:10 AM 35.6 °F 27.5 °F 26.6 °F 70% 29.62 in 10.0 mi West 11.5 mph - N/A   Clear
7:30 AM 35.6 °F 26.6 °F 26.6 °F 70% 29.63 in 10.0 mi West 13.8 mph 18.4 mph N/A   Clear
7:50 AM 37.4 °F 29.8 °F 28.4 °F 70% 29.64 in 10.0 mi West 11.5 mph - N/A   Clear
8:10 AM 37.4 °F 28.5 °F 28.4 °F 70% 29.66 in 10.0 mi WSW 15.0 mph - N/A   Clear
8:30 AM 39.2 °F 30.2 °F 28.4 °F 65% 29.67 in 10.0 mi WSW 17.3 mph - N/A   Clear
8:50 AM 41.0 °F 32.8 °F 30.2 °F 65% 29.68 in 10.0 mi WSW 16.1 mph 25.3 mph N/A   Clear
9:10 AM 42.8 °F 34.5 °F 32.0 °F 66% 29.70 in 10.0 mi West 18.4 mph 27.6 mph N/A   Clear
9:30 AM 44.6 °F 36.4 °F 30.2 °F 57% 29.70 in 10.0 mi West 20.7 mph 26.5 mph N/A   Clear
9:50 AM 44.6 °F 36.6 °F 30.2 °F 57% 29.70 in 10.0 mi WNW 19.6 mph 29.9 mph N/A   Clear
10:10 AM 44.6 °F 35.7 °F 28.4 °F 53% 29.72 in 10.0 mi WNW 24.2 mph 32.2 mph N/A   Clear
10:30 AM 46.4 °F 37.9 °F 26.6 °F 46% 29.73 in 10.0 mi WNW 25.3 mph 38.0 mph N/A   Clear
10:50 AM 46.4 °F 38.7 °F 26.6 °F 46% 29.73 in 10.0 mi WNW 20.7 mph 33.4 mph N/A   Clear
11:10 AM 48.2 °F - 26.6 °F 43% 29.74 in 10.0 mi WNW 26.5 mph 36.8 mph N/A   Clear
11:30 AM 50.0 °F - 24.8 °F 37% 29.74 in 10.0 mi WNW 26.5 mph 33.4 mph N/A   Clear
11:50 AM 50.0 °F - 23.0 °F 35% 29.74 in 10.0 mi WNW 24.2 mph 36.8 mph N/A   Clear
12:10 PM 50.0 °F - 24.8 °F 37% 29.74 in 10.0 mi West 27.6 mph 34.5 mph N/A   Clear
12:30 PM 51.8 °F - 23.0 °F 33% 29.74 in 10.0 mi West 26.5 mph 39.1 mph N/A   Clear
12:50 PM 51.8 °F - 23.0 °F 33% 29.75 in 10.0 mi West 27.6 mph 36.8 mph N/A   Clear
1:10 PM 53.6 °F - 23.0 °F 30% 29.74 in 10.0 mi WNW 26.5 mph 39.1 mph N/A   Clear
1:30 PM 53.6 °F - 23.0 °F 30% 29.75 in 10.0 mi West 24.2 mph 36.8 mph N/A   Clear
1:50 PM 53.6 °F - 23.0 °F 30% 29.75 in 10.0 mi NW 28.8 mph 36.8 mph N/A   Clear
2:10 PM 53.6 °F - 23.0 °F 30% 29.76 in 10.0 mi WNW 31.1 mph 38.0 mph N/A   Clear
2:30 PM 53.6 °F - 23.0 °F 30% 29.77 in 10.0 mi NW 25.3 mph 34.5 mph N/A   Clear
2:50 PM 53.6 °F - 23.0 °F 30% 29.79 in 10.0 mi WNW 23.0 mph 35.7 mph N/A   Clear
3:10 PM 51.8 °F - 23.0 °F 33% 29.80 in 10.0 mi NW 27.6 mph 36.8 mph N/A   Clear
3:30 PM 51.8 °F - 21.2 °F 30% 29.81 in 10.0 mi NW 21.9 mph 33.4 mph N/A   Clear
3:50 PM 51.8 °F - 21.2 °F 30% 29.82 in 10.0 mi NW 20.7 mph 29.9 mph N/A   Clear
4:10 PM 53.6 °F - 21.2 °F 28% 29.82 in 10.0 mi NW 18.4 mph 27.6 mph N/A   Clear
4:30 PM 51.8 °F - 19.4 °F 28% 29.83 in 10.0 mi NW 21.9 mph 29.9 mph N/A   Clear
4:50 PM 51.8 °F - 19.4 °F 28% 29.85 in 10.0 mi NW 19.6 mph 29.9 mph N/A   Clear
5:10 PM 50.0 °F - 19.4 °F 30% 29.86 in 10.0 mi NW 23.0 mph 28.8 mph N/A   Clear
5:30 PM 50.0 °F - 21.2 °F 32% 29.88 in 10.0 mi NW 13.8 mph 27.6 mph N/A   Clear
5:50 PM 48.2 °F - 21.2 °F 34% 29.90 in 10.0 mi NW 18.4 mph 23.0 mph N/A   Clear
6:10 PM 46.4 °F 40.1 °F 19.4 °F 34% 29.91 in 10.0 mi NNW 15.0 mph 19.6 mph N/A   Clear
6:30 PM 44.6 °F 39.2 °F 19.4 °F 37% 29.93 in 10.0 mi NNW 10.4 mph - N/A   Clear
6:50 PM 42.8 °F 36.6 °F 21.2 °F 42% 29.95 in 10.0 mi NNW 11.5 mph - N/A   Partly Cloudy
7:10 PM 41.0 °F 35.2 °F 21.2 °F 45% 29.97 in 10.0 mi NNW 9.2 mph - N/A   Scattered Clouds
7:30 PM 41.0 °F 35.8 °F 21.2 °F 45% 29.98 in 10.0 mi NNW 8.1 mph - N/A   Scattered Clouds
7:50 PM 39.2 °F 34.2 °F 19.4 °F 45% 29.99 in 10.0 mi NW 6.9 mph - N/A   Partly Cloudy
8:10 PM 39.2 °F 34.2 °F 19.4 °F 45% 30.00 in 10.0 mi NNW 6.9 mph - N/A   Partly Cloudy
8:30 PM 39.2 °F 35.0 °F 21.2 °F 49% 30.01 in 10.0 mi NNW 5.8 mph - N/A   Clear
8:50 PM 39.2 °F 35.9 °F 21.2 °F 49% 30.02 in 10.0 mi NNW 4.6 mph - N/A   Clear
9:10 PM 37.4 °F 32.8 °F 21.2 °F 52% 30.03 in 10.0 mi NNW 5.8 mph - N/A   Clear
9:30 PM 37.4 °F 33.8 °F 21.2 °F 52% 30.04 in 10.0 mi NNW 4.6 mph - N/A   Clear
9:50 PM 35.6 °F 30.7 °F 21.2 °F 56% 30.05 in 10.0 mi NNW 5.8 mph - N/A   Clear
10:10 PM 35.6 °F 29.9 °F 21.2 °F 56% 30.06 in 10.0 mi NNW 6.9 mph - N/A   Clear
10:30 PM 30.2 °F 21.9 °F 19.4 °F 64% 30.08 in 10.0 mi NNW 9.2 mph - N/A   Clear
10:50 PM 37.4 °F 29.8 °F 23.0 °F 56% 30.08 in 10.0 mi North 11.5 mph - N/A   Clear
11:10 PM 33.8 °F 25.8 °F 23.0 °F 65% 30.08 in 10.0 mi NNW 10.4 mph - N/A   Clear
11:30 PM 33.8 °F 25.3 °F 23.0 °F 65% 30.08 in 10.0 mi North 11.5 mph - N/A   Partly Cloudy
11:50 PM 33.8 °F 25.8 °F 23.0 °F 65% 30.08 in 10.0 mi North 10.4 mph - N/A   Clear